Weather reports worldwide

Advertisment
Madrid/Barajas, Spain (8221): temperature & dewpoint: 03.12.2019 22:00:00 - 09.12.2019 22:00:00 (CET)Madrid/Barajas, Spain (8221): wind speed: 03.12.2019 22:00:00 - 09.12.2019 22:00:00 (CET)Madrid/Barajas, Spain (8221): wind direction: 03.12.2019 22:00:00 - 09.12.2019 22:00:00 (CET)Madrid/Barajas, Spain (8221): reduced air pressure: 03.12.2019 22:00:00 - 09.12.2019 22:00:00 (CET)Madrid/Barajas, Spain (8221): visibility: 03.12.2019 22:00:00 - 09.12.2019 22:00:00 (CET)
Date & Time tt [°C] td [°C] ff [km/h] ff [kn] dd ppp [hPa] vv [km]
09.12.2019 22:00:00 - - - - - - -
09.12.2019 21:00:00 5,9 4,2 2 1 - 1032,2 8
09.12.2019 20:00:00 6,4 4,6 4 2 E 1031,7 7
09.12.2019 19:00:00 7,1 5,1 5 3 ENE 1030,9 10
09.12.2019 18:00:00 8,5 6,3 5 3 ENE 1029,9 10
09.12.2019 17:00:00 9,8 7,4 2 1 - 1029,0 10
09.12.2019 16:00:00 10,6 7,7 8 4 E 1028,4 10
09.12.2019 15:00:00 11,6 6,7 5 3 SE 1028,2 30
09.12.2019 14:00:00 11,0 5,9 9 5 S 1028,7 30
09.12.2019 13:00:00 9,6 5,6 9 5 SSW 1029,9 10
09.12.2019 12:00:00 8,7 6,6 13 7 SSE 1030,6 9
09.12.2019 11:00:00 6,5 6,1 8 4 S 1031,4 6
09.12.2019 10:00:00 5,5 5,1 8 4 ESE 1031,7 1,3
09.12.2019 09:00:00 5,5 5,1 8 4 SSE 1031,0 1,7
09.12.2019 08:00:00 5,7 5,3 4 2 E 1030,4 4,0
09.12.2019 07:00:00 5,8 5,4 4 2 E 1029,8 1,9
09.12.2019 06:00:00 5,9 5,5 9 5 SSE 1029,3 0,3
09.12.2019 05:00:00 6,1 5,7 0 0 N 1029,4 1,4
09.12.2019 04:00:00 6,0 5,6 0 0 N 1029,3 1,1
09.12.2019 03:00:00 6,2 5,8 4 2 - 1029,2 1,1
09.12.2019 02:00:00 6,6 6,2 2 1 - 1028,7 1,1
09.12.2019 01:00:00 6,6 6,0 0 0 N 1028,4 1,5
09.12.2019 00:00:00 6,5 5,9 5 3 SSE 1028,3 3,0
08.12.2019 23:00:00 6,4 5,8 0 0 N 1028,5 3,3
08.12.2019 22:00:00 6,3 5,7 0 0 N 1027,9 3,5
08.12.2019 21:00:00 6,3 5,7 4 2 N 1027,8 2,8
08.12.2019 20:00:00 6,3 5,6 0 0 N 1027,4 4,5
08.12.2019 19:00:00 6,2 5,5 4 2 E 1027,0 2,8
08.12.2019 18:00:00 6,3 5,4 0 0 N 1026,9 6
08.12.2019 17:00:00 6,3 5,3 0 0 N 1026,8 5
08.12.2019 16:00:00 6,3 5,3 2 1 NE 1026,9 5
08.12.2019 15:00:00 6,0 4,8 4 2 NE 1026,9 6
08.12.2019 14:00:00 5,9 4,9 4 2 SSE 1027,1 7
08.12.2019 13:00:00 5,7 5,0 4 2 - 1027,4 6
08.12.2019 12:00:00 5,5 5,1 8 4 SSE 1028,2 4,0
08.12.2019 11:00:00 5,1 4,7 2 1 - 1028,3 0,7
08.12.2019 10:00:00 4,2 3,8 5 3 N 1028,5 0,2
08.12.2019 09:00:00 4,4 4,0 2 1 - 1028,1 0,2
08.12.2019 08:00:00 4,2 3,6 4 2 NNE 1027,9 0,2
08.12.2019 07:00:00 4,0 3,4 0 0 N 1027,5 0,3
08.12.2019 06:00:00 3,6 2,9 0 0 N 1027,3 0,7
08.12.2019 05:00:00 3,5 2,9 4 2 - 1027,5 7
08.12.2019 04:00:00 2,8 2,1 4 2 N 1027,7 6
08.12.2019 03:00:00 2,3 1,4 2 1 - 1028,0 6
08.12.2019 02:00:00 3,5 2,6 9 5 NW 1028,1 5
08.12.2019 01:00:00 3,6 2,7 4 2 N 1027,9 6
08.12.2019 00:00:00 4,0 3,1 4 2 N 1028,0 8
07.12.2019 23:00:00 5,2 4,2 0 0 N 1027,6 8
07.12.2019 22:00:00 5,6 4,4 2 1 NNE 1027,0 9
07.12.2019 21:00:00 6,7 4,9 2 1 SE 1026,3 10
07.12.2019 20:00:00 8,2 5,3 4 2 SSE 1025,6 10
07.12.2019 19:00:00 9,7 5,5 8 4 SSW 1024,6 25
07.12.2019 18:00:00 10,8 6,0 8 4 S 1023,8 30
07.12.2019 17:00:00 13,1 6,2 5 3 S 1023,0 10
07.12.2019 16:00:00 13,8 5,8 4 2 - 1022,6 10
07.12.2019 15:00:00 13,5 5,6 4 2 S 1022,8 21
07.12.2019 14:00:00 11,5 6,1 4 2 WNW 1023,8 30
07.12.2019 13:00:00 10,4 5,4 4 2 - 1024,9 10
07.12.2019 12:00:00 8,4 4,8 4 2 - 1026,3 10
07.12.2019 11:00:00 6,8 3,7 4 2 S 1026,8 30
07.12.2019 10:00:00 3,9 3,2 0 0 N 1027,4 17
07.12.2019 09:00:00 0,8 0,1 4 2 - 1027,8 10
07.12.2019 08:00:00 1,1 0,4 5 3 N 1027,3 14
07.12.2019 07:00:00 1,4 0,5 8 4 NNW 1026,9 23
07.12.2019 06:00:00 1,6 0,7 2 1 NNW 1026,7 10
07.12.2019 05:00:00 1,9 0,7 4 2 NNW 1026,7 15
07.12.2019 04:00:00 3,2 1,9 5 3 N 1026,6 30
07.12.2019 03:00:00 3,4 2,1 8 4 NNW 1026,3 10
07.12.2019 02:00:00 4,0 2,5 4 2 N 1026,1 10
07.12.2019 01:00:00 5,0 3,3 8 4 NNE 1026,1 25
07.12.2019 00:00:00 5,9 4,1 5 3 N 1026,1 25
06.12.2019 23:00:00 4,6 3,3 8 4 N 1026,1 20
06.12.2019 22:00:00 5,9 4,4 5 3 N 1025,2 20
06.12.2019 21:00:00 7,1 5,1 0 0 N 1024,6 10
06.12.2019 20:00:00 8,0 4,8 4 2 SSE 1024,0 30
06.12.2019 19:00:00 9,1 4,7 4 2 - 1023,2 10
06.12.2019 18:00:00 10,5 4,8 2 1 - 1022,3 10
06.12.2019 17:00:00 13,0 6,1 0 0 N 1021,6 10
06.12.2019 16:00:00 12,9 6,5 4 2 WNW 1021,5 30
06.12.2019 15:00:00 14,3 5,5 4 2 - 1021,3 10
06.12.2019 14:00:00 13,5 5,3 5 3 SW 1021,9 30
06.12.2019 13:00:00 12,1 6,3 4 2 WNW 1023,0 30
06.12.2019 12:00:00 10,5 5,7 4 2 - 1024,2 10
06.12.2019 11:00:00 8,7 4,9 11 6 NNW 1025,2 30
06.12.2019 10:00:00 8,0 4,8 11 6 NNW 1025,0 30
06.12.2019 09:00:00 7,1 4,4 0 0 N 1024,5 10
06.12.2019 08:00:00 6,8 4,5 0 0 N 1024,3 10
06.12.2019 07:00:00 6,3 4,3 8 4 NNW 1023,9 30
06.12.2019 06:00:00 6,7 4,2 8 4 N 1023,4 30
06.12.2019 05:00:00 7,0 4,3 8 4 NNW 1023,0 10
06.12.2019 04:00:00 8,7 5,1 9 5 NNW 1022,6 30
06.12.2019 03:00:00 8,4 5,1 8 4 NNW 1022,7 30
06.12.2019 02:00:00 8,4 5,0 9 5 NNW 1022,8 10
06.12.2019 01:00:00 7,8 4,9 8 4 NNW 1023,2 10
06.12.2019 00:00:00 7,8 4,5 13 7 NNW 1023,4 30
05.12.2019 23:00:00 8,3 4,7 9 5 N 1022,9 10
05.12.2019 22:00:00 8,2 4,4 11 6 N 1022,5 30
05.12.2019 21:00:00 8,3 4,3 11 6 N 1022,2 10
05.12.2019 20:00:00 8,7 4,3 5 3 NNW 1021,3 10
05.12.2019 19:00:00 9,7 4,7 4 2 - 1020,2 10
05.12.2019 18:00:00 11,0 4,9 11 6 NNE 1019,2 10
05.12.2019 17:00:00 12,3 4,8 16 9 NNE 1018,6 30
05.12.2019 16:00:00 12,4 5,6 18 10 N 1018,1 30
05.12.2019 15:00:00 12,8 5,2 18 10 NNE 1017,7 10
05.12.2019 14:00:00 12,5 5,1 18 10 NNE 1017,8 10
05.12.2019 13:00:00 11,3 4,6 18 10 NNE 1018,5 30
05.12.2019 12:00:00 11,7 5,2 13 7 NNE 1018,7 10
05.12.2019 11:00:00 9,8 4,5 11 6 NNE 1019,1 10
05.12.2019 10:00:00 9,2 4,1 13 7 N 1018,3 10
05.12.2019 09:00:00 8,8 3,6 18 10 NNE 1017,5 30
05.12.2019 08:00:00 8,3 3,5 11 6 N 1016,9 30
05.12.2019 07:00:00 8,3 3,5 8 4 N 1016,0 10
05.12.2019 06:00:00 8,6 3,4 11 6 NNE 1015,2 10
05.12.2019 05:00:00 8,5 3,1 5 3 NNE 1014,8 10
05.12.2019 04:00:00 8,9 3,1 9 5 NNE 1014,4 10
05.12.2019 03:00:00 8,7 3,5 4 2 NNE 1014,2 30
05.12.2019 02:00:00 8,9 4,3 11 6 NNE 1013,3 30
05.12.2019 01:00:00 9,0 4,4 15 8 N 1012,6 30
05.12.2019 00:00:00 8,0 4,3 4 2 - 1012,4 10
04.12.2019 23:00:00 7,5 3,9 4 2 NNE 1012,1 30
04.12.2019 22:00:00 8,1 4,3 5 3 NW 1011,6 10
04.12.2019 21:00:00 8,5 4,3 2 1 NNE 1011,3 10
04.12.2019 20:00:00 9,5 4,5 9 5 NNE 1010,6 30
04.12.2019 19:00:00 10,1 5,7 8 4 NNE 1009,9 10
04.12.2019 18:00:00 10,1 6,2 9 5 N 1009,4 10
04.12.2019 17:00:00 10,5 6,8 11 6 NE 1009,3 30
04.12.2019 16:00:00 11,6 5,5 16 9 NE 1008,1 30
04.12.2019 15:00:00 11,8 6,2 18 10 NNE 1007,6 10
04.12.2019 14:00:00 10,5 6,3 13 7 N 1008,0 10
04.12.2019 13:00:00 9,8 6,4 15 8 N 1009,4 10
04.12.2019 12:00:00 9,3 6,4 11 6 NNE 1010,3 10
04.12.2019 11:00:00 8,4 6,4 5 3 N 1011,0 10
04.12.2019 10:00:00 7,0 5,1 13 7 N 1011,6 10
04.12.2019 09:00:00 6,8 5,1 9 5 NNW 1011,7 10
04.12.2019 08:00:00 6,6 4,9 11 6 NNW 1011,8 17
04.12.2019 07:00:00 6,2 4,8 11 6 NNW 1011,8 10
04.12.2019 06:00:00 6,5 4,5 13 7 N 1011,9 30
04.12.2019 05:00:00 5,7 4,2 11 6 NNW 1012,7 30
04.12.2019 04:00:00 5,6 3,8 8 4 N 1013,8 10
04.12.2019 03:00:00 5,4 3,6 8 4 N 1014,4 10
04.12.2019 02:00:00 5,3 3,3 11 6 N 1015,1 10
04.12.2019 01:00:00 6,0 2,6 8 4 NNE 1015,6 12
04.12.2019 00:00:00 6,3 1,8 11 6 N 1015,9 10
03.12.2019 23:00:00 5,8 2,4 8 4 N 1016,1 10
03.12.2019 22:00:00 6,4 2,3 9 5 NNW 1015,8 10

tt = temperature
td = dewpoint
ff = wind speed
dd = wind direction
ppp = reduced air pressure
vv = visibility

Next stations